Location: *
(53.9002°N, 27.5624°E)
Time: 21:56:20
(UTC+00:00)

COBE Rocket - Pass Details

Date: 12 November 2019
Orbit: 679 x 783 km, 97.1° (Epoch: 11 December)

Event Time Altitude Azimuth Distance (km) Brightness Sun altitude
Rises 16:27:09 0° 11° (N) 3,187 7.1 -19.1°
Reaches altitude 10° 16:29:29 10° 8° (N) 2,243 6.3 -19.5°
Maximum altitude 16:34:20 63° 289° (WNW) 804 4.3 -20.2°
Drops below altitude 10° 16:39:02 10° 209° (SSW) 2,164 6.7 -20.9°
Sets 16:41:15 0° 206° (SSW) 3,065 7.5 -21.2°
